Simultaneous Nadir Overpasses (SNOs) Predictions

Prediction of SNOs between METOP-C and LANDSAT-8 Satellite Orbit:

Table of predicted SNOs for the next 14.0 days since TLE Epoch: 3/14/2020
Index Date (METOP-C) Time (METOP-C) Lat,Lon (METOP-C) SZA (METOP-C ) Date (LANDSAT-8) Time (LANDSAT-8) Lat,Lon (LANDSAT-8) SZA (LANDSAT-8 ) Distance(km) Time Diff (sec)
1 03/14/2020 19:46:43 -81.07, 102.12 95.11 03/14/2020 19:46:47 -81.07, 101.97 95.13 2.64 4
2 03/14/2020 20:37:22 81.10, -89.84 84.97 03/14/2020 20:36:12 81.10, -89.93 84.93 1.52 70
3 03/17/2020 14:30:28 81.04, 0.41 83.72 03/17/2020 14:31:35 81.04, 0.43 83.75 0.29 67
4 03/17/2020 15:21:07 -81.07, 168.37 96.22 03/17/2020 15:21:01 -81.06, 168.38 96.22 0.23 6
5 03/20/2020 10:04:51 81.03, 66.67 82.62 03/20/2020 10:05:48 81.04, 66.77 82.65 1.80 57
6 03/20/2020 10:55:30 -81.06,-125.39 97.33 03/20/2020 10:55:14 -81.06,-125.25 97.32 2.54 16
7 03/23/2020 05:39:14 81.04, 133.28 81.56 03/23/2020 05:40:01 81.05, 133.45 81.60 3.01 47
8 03/23/2020 06:29:52 -81.08, -58.42 98.34 03/23/2020 06:29:27 -81.08, -58.54 98.37 2.12 25
9 03/26/2020 01:13:37 81.05,-160.11 80.50 03/26/2020 01:14:15 81.04,-160.26 80.49 2.82 38




NCC Satellite Simultaneous Nadir Overpasses (SNOs) Prediction Service
